User: anonymous   Login
Location: Pian di Sc�
(43.6333°N, 11.5500°E)
Time: 16:13:50
(UTC+00:00)
Language:

Helios 1B - Orbit

View from above orbital plane
View from above orbital plane
View from above satellite
View from above satellite

Ground track
Ground track

The orbit data is extracted from the following two-line orbital elements,

1 25977U 99064A   20296.04382092  .00000067  00000-0  15409-4 0  9991
2 25977  98.2966  95.4647 0000533  14.2640 345.8587 14.82500910125171
Epoch (UTC): 22 October 2020 01:03:06
Eccentricity: 0.0000533
inclination: 98.2966°
perigee height: 621 km
apogee height: 622 km
right ascension of ascending node: 95.4647°
argument of perigee: 14.2640°
revolutions per day: 14.82500910
mean anomaly at epoch: 345.8587°
orbit number at epoch: 12517

The dashed part of the orbit path shows where the satellite is in the earth's shadow,  

DLR